Regional Weather Roundup
Issued by NWS Sioux Falls, SD

Home | Current Version | Previous Version | Text Only | Print | Product List | Glossary On
Versions: 1 2 3 4 5 6 7 8 9 10 11 12 13 14 15 16 17 18 19 20 21 22 23 24 25 26 27 28 29 30 31 32 33 34 35 36 37 38 39 40 41 42 43 44 45 46 47 48 49 50
000
ASUS43 KFSD 250102
RWRFSD

WEATHER ROUNDUP FOR SE SOUTH DAKOTA/SW MINNESOTA/NW IOWA
NATIONAL WEATHER SERVICE SIOUX FALLS SD
700 PM CST MON NOV 24 2014

NOTE: "FAIR" INDICATES FEW OR NO CLOUDS BELOW 12,000 FEET WITH NO
SIGNIFICANT WEATHER AND OR OBSTRUCTIONS TO VISIBILITY.


SDZ038>040-050-052>070-250200-
SOUTHEAST SOUTH DAKOTA

CITY           SKY/WX    TMP DP  RH WIND       PRES   REMARKS
CHAMBERLAIN    CLEAR     23   8  51 NW13      30.04R WCI  11
HURON          CLEAR     20   8  60 NW14      30.02R WCI   7
MADISON        FAIR      19  14  79 NW16G25   29.94R WCI   5
MITCHELL       CLEAR     22   9  57 NW15      30.03R WCI   9
SIOUX FALLS    CLEAR     22  14  71 NW21      29.95R WCI   6
WINNER         FAIR      21   9  59 NW8       30.04R WCI  11
YANKTON        CLEAR     25   7  46 NW16      30.02R WCI  12
$$

MNZ071-072-080-081-089-090-097-098-250200-
SOUTHWEST MINNESOTA

CITY           SKY/WX    TMP DP  RH WIND       PRES   REMARKS
FAIRMONT       MOCLDY    18  10  73 NW26G33   29.82R WCI  -1
JACKSON        MOCLDY    21  14  73 NW24G38   29.84R WCI   4
LUVERNE        CLEAR     23  16  74 NW22G29   29.91R WCI   8
MARSHALL       CLEAR     19  10  68 NW24G32   29.90R WCI   2
MONTEVIDEO     PTCLDY    18  14  86 N21G28    29.91R WCI   1
PIPESTONE      CLEAR     19  12  73 NW21G31   29.89R WCI   3
REDWOOD FALLS  MOCLDY    19  12  74 NW18G29   29.87R WCI   4
TRACY          CLEAR     21  15  76 NW20G32   29.89R WCI   5
WINDOM         PTCLDY    19  14  79 NW30G36   29.84R WCI   0
WORTHINGTON    PTCLDY    19  12  73 NW21G32   29.87R WCI   3
$$

IAZ001>003-012>014-020>022-031-032-NEZ013-014-SDZ071-250200-
NORTHWEST IOWA

CITY           SKY/WX    TMP DP  RH WIND       PRES   REMARKS
CHEROKEE       CLOUDY    25  17  72 NW14G29   29.91R WCI  13
DENISON        CLOUDY    27  16  63 NW23G30   29.91R WCI  12
ESTHERVILLE    CLOUDY    20  13  74 NW28G38   29.84R WCI   2
LE MARS        CLEAR     25  16  68 NW15G23   29.96R WCI  12
ORANGE CITY    CLEAR     25  16  68 NW18G24   29.92R WCI  11
SHELDON        CLEAR     21  16  79 NW22G30   29.89R WCI   5
SIOUX CITY     CLEAR     26  15  63 NW17      29.97R WCI  13
SPENCER        MOCLDY    22  14  71 NW17G28   29.87R WCI   8
STORM LAKE     CLOUDY    23  14  68 NW22G31   29.89R WCI   8
$$

ABBREVIATIONS USED IN REMARKS
   TC - TEMPERATURE IN CELSIUS
  WCI - WIND CHILL INDEX
   HX - HEAT INDEX
  VSB - VISIBILITY



USA.gov is the U.S. government's official web portal to all federal, state and local government web resources and services.